{"data":{"norad_id":67496,"epoch":"2026-05-24T15:05:44.033568Z","epoch_age_seconds":100397,"freshness":"FRESH","line1":"1 67496U 26012D   26144.62898187  .00024287  00000+0  88900-3 0  9999","line2":"2 67496  42.9998 245.7297 0001390 274.6925  85.3768 15.27586289 19379","mean_motion":15.27586289,"eccentricity":0.000139,"inclination_deg":42.9998,"raan_deg":245.7297,"arg_perigee_deg":274.6925,"mean_anomaly_deg":85.3768,"bstar":0.000889,"rev_number":1937,"period_min":94.266360621937,"perigee_km":482.07656232603,"apogee_km":483.98396682558,"semimajor_km":6861.1672645758,"source":"CELESTRAK","updated_at":"2026-05-25T13:38:21.566768Z"}}